DW4379 Weather Reports


Display with metric or nautical units.
time (UTC)temp
F
wind
direction
speed
MPH
gust
MPH
rain 1hr
in
rain 24hr
in
rain mn
in
humidity
%
barometer
mb
20260905134004 82 0 0.0 0.0 0.00 0.00 0.00 82 1012.5
20260905133503 82 230 0.0 1.0 0.00 0.00 0.00 83 1012.5
20260905133004 81 230 0.0 1.0 0.00 0.00 0.00 84 1012.5
20260905132503 81 230 0.0 1.0 0.00 0.00 0.00 84 1012.5
20260905132218 81 0 0.0 0.0 0.00 0.00 0.00 84 1012.5
20260905131503 80 235 0.0 1.0 0.00 0.00 0.00 85 1012.5
20260905131003 80 235 0.0 1.0 0.00 0.00 0.00 85 1012.4
20260905130503 80 236 0.0 1.0 0.00 0.00 0.00 84 1012.4
20260905130004 80 0 0.0 0.0 0.00 0.00 0.00 86 1012.5
20260905125503 79 0 0.0 0.0 0.00 0.00 0.00 85 1012.6
20260905125004 79 139 0.0 1.0 0.00 0.00 0.00 85 1012.6
20260905124503 79 139 0.0 1.0 0.00 0.00 0.00 86 1012.7
20260905124004 79 0 0.0 0.0 0.00 0.00 0.00 88 1012.7
20260905123504 78 0 0.0 0.0 0.00 0.00 0.00 88 1012.6
20260905123004 78 0 0.0 0.0 0.00 0.00 0.00 89 1012.5
20260905122503 78 0 0.0 0.0 0.00 0.00 0.00 89 1012.4
20260905122003 77 0 0.0 0.0 0.00 0.00 0.00 90 1012.5
20260905121717 77 0 0.0 0.0 0.00 0.00 0.00 90 1012.5
20260905121218 77 0 0.0 0.0 0.00 0.00 0.00 90 1012.5
20260905120504 77 0 0.0 0.0 0.00 0.00 0.00 91 1012.5
20260905120004 77 0 0.0 0.0 0.00 0.00 0.00 91 1012.4
20260905115503 77 0 0.0 0.0 0.00 0.00 0.00 91 1012.5
20260905115004 76 0 0.0 0.0 0.00 0.00 0.00 91 1012.5
20260905114504 76 0 0.0 0.0 0.00 0.00 0.00 91 1012.4
20260905114218 76 0 0.0 0.0 0.00 0.00 0.00 91 1012.4
20260905113504 76 0 0.0 0.0 0.00 0.00 0.00 91 1012.4
20260905113218 76 0 0.0 0.0 0.00 0.00 0.00 91 1012.3
20260905112504 76 0 0.0 0.0 0.00 0.00 0.00 91 1012.4
20260905112003 76 0 0.0 0.0 0.00 0.00 0.00 91 1012.3
20260905111504 76 0 0.0 0.0 0.00 0.00 0.00 90 1012.2
20260905111003 77 0 0.0 0.0 0.00 0.00 0.00 90 1012.3
20260905110504 77 0 0.0 0.0 0.00 0.00 0.00 89 1012.2
20260905110004 77 0 0.0 0.0 0.00 0.00 0.00 89 1012.2
20260905105503 77 0 0.0 0.0 0.00 0.00 0.00 89 1012.1
20260905105003 77 0 0.0 0.0 0.00 0.00 0.00 90 1012.1
20260905104504 77 0 0.0 0.0 0.00 0.00 0.00 90 1012.0
20260905104003 77 0 0.0 0.0 0.00 0.00 0.00 90 1012.0
20260905103503 77 0 0.0 0.0 0.00 0.00 0.00 90 1012.0
20260905103003 77 0 0.0 0.0 0.00 0.00 0.00 89 1012.0
20260905102503 77 0 0.0 0.0 0.00 0.00 0.00 90 1012.1
20260905102003 77 0 0.0 0.0 0.00 0.00 0.00 90 1012.2
20260905101503 77 0 0.0 0.0 0.00 0.00 0.00 90 1012.1
20260905101003 77 0 0.0 0.0 0.00 0.00 0.00 90 1012.1
20260905100504 77 0 0.0 0.0 0.00 0.00 0.00 90 1012.1
20260905100003 77 0 0.0 0.0 0.00 0.00 0.00 91 1012.1
20260905095504 77 0 0.0 0.0 0.00 0.00 0.00 91 1012.0
20260905095217 77 0 0.0 0.0 0.00 0.00 0.00 91 1012.0
20260905094503 77 0 0.0 0.0 0.00 0.00 0.00 92 1012.0
20260905094004 77 0 0.0 0.0 0.00 0.00 0.00 92 1012.0
20260905093718 77 136 0.0 1.0 0.00 0.00 0.00 92 1012.0
20260905093004 77 153 0.0 1.0 0.00 0.00 0.00 92 1012.0
20260905092718 77 155 0.0 1.0 0.00 0.00 0.00 92 1012.0
20260905092003 77 169 0.0 1.0 0.00 0.00 0.00 92 1011.9
20260905091504 77 169 0.0 1.0 0.00 0.00 0.00 92 1011.9
20260905091003 77 17 0.0 1.0 0.00 0.00 0.00 92 1011.8
20260905090504 77 15 0.0 1.0 0.00 0.00 0.00 93 1011.9
20260905090004 77 142 0.0 1.0 0.00 0.00 0.00 93 1011.9
20260905085503 77 161 0.0 1.0 0.00 0.00 0.00 92 1011.9
20260905085003 77 0 0.0 0.0 0.00 0.00 0.00 92 1011.9
20260905084504 77 0 0.0 0.0 0.00 0.00 0.00 92 1011.8
20260905084218 77 0 0.0 0.0 0.00 0.00 0.00 92 1011.8
20260905083504 78 0 0.0 0.0 0.00 0.00 0.00 91 1011.7
20260905083003 78 0 0.0 0.0 0.00 0.00 0.00 91 1011.7
20260905082503 78 0 0.0 0.0 0.00 0.00 0.00 91 1011.7
20260905082003 78 0 0.0 0.0 0.00 0.00 0.00 91 1011.6
20260905081503 78 0 0.0 0.0 0.00 0.00 0.00 91 1011.6
20260905081003 78 0 0.0 0.0 0.00 0.00 0.00 91 1011.6
20260905080503 78 0 0.0 0.0 0.00 0.00 0.00 91 1011.7
20260905080004 78 0 0.0 0.0 0.00 0.00 0.00 91 1011.7
20260905075717 78 0 0.0 0.0 0.00 0.00 0.00 91 1011.5
20260905075003 78 0 0.0 0.0 0.00 0.00 0.00 91 1011.6
20260905074503 78 0 0.0 0.0 0.00 0.00 0.00 90 1011.7
20260905074004 78 0 0.0 0.0 0.00 0.00 0.00 90 1011.7
20260905073503 78 0 0.0 0.0 0.00 0.00 0.00 90 1011.7
20260905073003 78 0 0.0 0.0 0.00 0.00 0.00 91 1011.7
20260905072503 78 0 0.0 0.0 0.00 0.00 0.00 91 1011.8
20260905072003 78 0 0.0 0.0 0.00 0.00 0.00 90 1011.9
20260905071503 78 0 0.0 0.0 0.00 0.00 0.00 90 1011.8
20260905071004 79 0 0.0 0.0 0.00 0.00 0.00 90 1011.8
20260905070717 79 0 0.0 0.0 0.00 0.00 0.00 90 1011.8
20260905070004 79 0 0.0 0.0 0.00 0.00 0.00 90 1011.8
20260905065504 79 0 0.0 0.0 0.00 0.00 0.00 90 1011.7
20260905065003 79 0 0.0 0.0 0.00 0.00 0.00 90 1011.8
20260905064503 79 0 0.0 0.0 0.00 0.00 0.00 90 1011.9
20260905064004 79 0 0.0 0.0 0.00 0.00 0.00 90 1011.9
20260905063504 79 0 0.0 0.0 0.00 0.00 0.00 90 1011.9
20260905063004 79 0 0.0 0.0 0.00 0.00 0.00 90 1012.0
20260905062503 79 0 0.0 0.0 0.00 0.00 0.00 90 1012.0
20260905062003 79 0 0.0 0.0 0.00 0.00 0.00 90 1012.0
20260905061719 79 0 0.0 0.0 0.00 0.00 0.00 90 1012.0
20260905061004 79 0 0.0 0.0 0.00 0.00 0.00 90 1012.1
20260905060503 80 0 0.0 0.0 0.00 0.00 0.00 90 1012.1
20260905060004 80 0 0.0 0.0 0.00 0.00 0.00 90 1012.1
20260905055504 80 0 0.0 0.0 0.00 0.00 0.00 90 1012.1
20260905055004 80 0 0.0 0.0 0.00 0.00 0.00 90 1012.0
20260905054503 80 0 0.0 0.0 0.00 0.00 0.00 90 1012.0
20260905054004 80 0 0.0 0.0 0.00 0.00 0.00 90 1012.1
20260905053503 80 0 0.0 0.0 0.00 0.00 0.00 90 1012.1
20260905053217 80 0 0.0 0.0 0.00 0.00 0.00 90 1012.2
20260905052503 80 0 0.0 0.0 0.00 0.00 0.00 90 1012.3
20260905052003 80 0 0.0 0.0 0.00 0.00 0.00 90 1012.3
20260905051718 80 0 0.0 0.0 0.00 0.00 0.00 90 1012.3
20260905051003 80 0 0.0 0.0 0.00 0.00 0.00 90 1012.2
20260905050503 80 0 0.0 0.0 0.00 0.00 0.00 90 1012.2
20260905050004 80 0 0.0 0.0 0.00 0.00 0.00 90 1012.1
20260905045503 80 0 0.0 0.0 0.00 0.00 0.00 90 1012.3
20260905045003 81 0 0.0 0.0 0.00 0.00 0.00 90 1012.2
20260905044504 81 0 0.0 0.0 0.00 0.00 0.00 90 1012.3
20260905044003 81 0 0.0 0.0 0.00 0.00 0.00 91 1012.4
20260905043503 81 0 0.0 0.0 0.00 0.00 0.00 90 1012.4
20260905043004 81 0 0.0 0.0 0.00 0.00 0.00 90 1012.5
20260905042504 81 0 0.0 0.0 0.00 0.00 0.00 90 1012.4
20260905042003 81 0 0.0 0.0 0.00 0.00 0.00 90 1012.5
20260905041504 81 0 0.0 0.0 0.00 0.00 0.00 90 1012.5
20260905041003 81 0 0.0 0.0 0.00 0.00 0.00 90 1012.5
20260905040504 81 0 0.0 0.0 0.00 0.00 0.00 89 1012.5
20260905040009 81 96 0.0 1.0 0.00 0.00 0.00 89 1012.5
20260905035503 82 97 0.0 1.0 0.00 0.00 0.00 89 1012.5
20260905035003 82 97 0.0 1.0 0.00 0.00 0.00 89 1012.5
20260905034503 82 97 0.0 1.0 0.00 0.00 0.00 89 1012.6
20260905034003 82 0 0.0 0.0 0.00 0.00 0.00 89 1012.7
20260905033503 82 0 0.0 0.0 0.00 0.00 0.00 89 1012.7
20260905033003 82 0 0.0 0.0 0.00 0.00 0.00 88 1012.6
20260905032503 83 0 0.0 0.0 0.00 0.00 0.00 87 1012.6
20260905032218 83 0 0.0 0.0 0.00 0.00 0.00 87 1012.6
20260905031503 83 0 0.0 0.0 0.00 0.00 0.00 87 1012.6
20260905031003 83 0 0.0 0.0 0.00 0.00 0.00 88 1012.7
20260905030717 83 0 0.0 0.0 0.00 0.00 0.00 88 1012.6
20260905030003 83 0 0.0 0.0 0.00 0.00 0.00 88 1012.5
20260905025503 83 0 0.0 0.0 0.00 0.00 0.00 88 1012.5
20260905025218 83 0 0.0 0.0 0.00 0.00 0.00 88 1012.4
20260905024503 83 0 0.0 0.0 0.00 0.00 0.00 86 1012.4
20260905024218 83 0 0.0 0.0 0.00 0.00 0.00 86 1012.4
20260905023503 84 0 0.0 0.0 0.00 0.00 0.00 84 1012.4
20260905023218 84 0 0.0 0.0 0.00 0.00 0.00 84 1012.4
20260905022504 84 0 0.0 0.0 0.00 0.00 0.00 83 1012.2
20260905022003 84 0 0.0 0.0 0.00 0.00 0.00 84 1012.2
20260905021504 85 0 0.0 0.0 0.00 0.00 0.00 84 1012.3
20260905021218 85 0 0.0 0.0 0.00 0.00 0.00 84 1012.3
20260905020503 85 0 0.0 0.0 0.00 0.00 0.00 83 1012.3
20260905020003 86 0 0.0 0.0 0.00 0.00 0.00 82 1012.3
20260905015717 86 0 0.0 0.0 0.00 0.00 0.00 81 1012.4
20260905015003 86 0 0.0 0.0 0.00 0.00 0.00 81 1012.2
20260905014504 86 0 0.0 0.0 0.00 0.00 0.00 81 1012.0
20260905014003 86 0 0.0 0.0 0.00 0.00 0.00 82 1012.0
20260905013503 86 0 0.0 0.0 0.00 0.00 0.00 82 1012.1
20260905013218 86 0 0.0 0.0 0.00 0.00 0.00 81 1012.0
20260905012503 86 0 0.0 0.0 0.00 0.00 0.00 81 1012.0
20260905012003 87 0 0.0 0.0 0.00 0.00 0.00 80 1011.9
20260905011503 87 0 0.0 0.0 0.00 0.00 0.00 79 1011.9
20260905011004 88 0 0.0 0.0 0.00 0.00 0.00 78 1011.9
20260905010718 88 0 0.0 0.0 0.00 0.00 0.00 77 1011.9
20260905010004 89 0 0.0 0.0 0.00 0.00 0.00 76 1011.7
20260905005504 90 0 0.0 0.0 0.00 0.00 0.00 74 1011.7
20260905005004 90 0 0.0 0.0 0.00 0.00 0.00 73 1011.7
20260905004503 90 0 0.0 0.0 0.00 0.00 0.00 73 1011.6
20260905004008 91 0 0.0 0.0 0.00 0.00 0.00 72 1011.6
20260905003504 91 0 0.0 0.0 0.00 0.00 0.00 71 1011.5
20260905003004 91 0 0.0 0.0 0.00 0.00 0.00 71 1011.5
20260905002503 92 0 0.0 0.0 0.00 0.00 0.00 70 1011.6
20260905002003 93 0 0.0 0.0 0.00 0.00 0.00 70 1011.5
20260905001503 93 0 0.0 0.0 0.00 0.00 0.00 67 1011.6
20260905001217 93 0 0.0 0.0 0.00 0.00 0.00 67 1011.5
20260905000503 94 0 0.0 0.0 0.00 0.00 0.00 62 1011.5
20260905000003 94 0 0.0 0.0 0.00 0.00 0.00 62 1011.5
20260904235503 94 0 0.0 0.0 0.00 0.00 0.00 62 1011.5
20260904235217 94 0 0.0 0.0 0.00 0.00 0.00 62 1011.5
20260904234504 95 0 0.0 0.0 0.00 0.00 0.00 60 1011.4
20260904234004 95 0 0.0 0.0 0.00 0.00 0.00 59 1011.4
20260904233503 96 0 0.0 0.0 0.00 0.00 0.00 59 1011.3
20260904233003 96 0 0.0 0.0 0.00 0.00 0.00 59 1011.4
20260904232503 96 0 0.0 0.0 0.00 0.00 0.00 58 1011.5
20260904232217 96 0 0.0 0.0 0.00 0.00 0.00 57 1011.5
20260904231503 97 0 0.0 0.0 0.00 0.00 0.00 56 1011.4
20260904231004 97 0 0.0 0.0 0.00 0.00 0.00 55 1011.4
20260904230504 97 226 0.0 1.0 0.00 0.00 0.00 54 1011.4
20260904230217 97 226 0.0 1.0 0.00 0.00 0.00 54 1011.4
20260904225503 97 225 0.0 1.0 0.00 0.00 0.00 55 1011.4
20260904225004 97 230 0.0 1.0 0.00 0.00 0.00 55 1011.5
20260904224503 98 235 0.0 1.0 0.00 0.00 0.00 55 1011.5
20260904224004 98 242 0.0 1.0 0.00 0.00 0.00 54 1011.5
20260904223503 98 246 0.0 1.0 0.00 0.00 0.00 54 1011.6
20260904223004 98 239 0.0 1.0 0.00 0.00 0.00 54 1011.5
20260904222503 98 231 0.0 2.0 0.00 0.00 0.00 53 1011.3
20260904222003 98 228 0.0 2.0 0.00 0.00 0.00 54 1011.4
20260904221717 98 230 0.0 2.0 0.00 0.00 0.00 54 1011.5
20260904221003 98 231 0.0 2.0 0.00 0.00 0.00 52 1011.6
20260904220503 98 228 0.0 1.0 0.00 0.00 0.00 54 1011.7
20260904220004 98 201 0.0 1.0 0.00 0.00 0.00 53 1011.8
20260904215504 98 162 0.0 2.0 0.00 0.00 0.00 53 1011.7
20260904215218 98 170 0.0 2.0 0.00 0.00 0.00 52 1011.7
20260904214717 98 155 0.0 2.0 0.00 0.00 0.00 52 1011.7
20260904214003 99 125 0.0 2.0 0.00 0.00 0.00 53 1011.8
20260904213503 99 145 0.0 2.0 0.00 0.00 0.00 51 1011.8
20260904213004 100 214 0.0 2.0 0.00 0.00 0.00 52 1011.9
20260904212503 100 209 0.0 2.0 0.00 0.00 0.00 53 1011.9
20260904212003 100 210 0.0 1.0 0.00 0.00 0.00 51 1011.8
20260904211503 100 214 0.0 1.0 0.00 0.00 0.00 51 1011.9
20260904211003 100 214 0.0 1.0 0.00 0.00 0.00 51 1011.9
20260904210503 100 209 0.0 1.0 0.00 0.00 0.00 49 1012.0
20260904210004 100 197 0.0 2.0 0.00 0.00 0.00 50 1012.1
20260904205503 100 199 0.0 2.0 0.00 0.00 0.00 49 1012.2
20260904205003 100 211 0.0 1.0 0.00 0.00 0.00 50 1012.2
20260904204503 100 146 0.0 2.0 0.00 0.00 0.00 50 1012.2
20260904204004 100 145 0.0 2.0 0.00 0.00 0.00 49 1012.3
20260904203503 100 157 0.0 1.0 0.00 0.00 0.00 53 1012.4
20260904203004 99 187 0.0 1.0 0.00 0.00 0.00 52 1012.4
20260904202503 99 191 0.0 2.0 0.00 0.00 0.00 52 1012.6
20260904202218 99 186 0.0 2.0 0.00 0.00 0.00 53 1012.6
20260904201503 99 125 1.0 4.0 0.00 0.00 0.00 54 1012.7
20260904201003 99 107 1.0 3.0 0.00 0.00 0.00 54 1012.6
20260904200504 99 105 0.0 3.0 0.00 0.00 0.00 52 1012.7
20260904200004 99 0 0.0 0.0 0.00 0.00 0.00 53 1012.8
20260904195503 98 0 0.0 0.0 0.00 0.00 0.00 52 1012.8
20260904195218 98 28 0.0 1.0 0.00 0.00 0.00 54 1012.9
20260904194719 98 97 0.0 3.0 0.00 0.00 0.00 53 1013.0
20260904194218 98 107 0.0 3.0 0.00 0.00 0.00 53 1013.1
20260904193504 98 0 0.0 0.0 0.00 0.00 0.00 54 1013.3
20260904193004 98 263 0.0 1.0 0.00 0.00 0.00 54 1013.5
20260904192503 99 256 0.0 1.0 0.00 0.00 0.00 53 1013.5
20260904192003 100 247 0.0 1.0 0.00 0.00 0.00 52 1013.6
20260904191503 99 232 0.0 1.0 0.00 0.00 0.00 53 1013.6
20260904191003 99 229 0.0 1.0 0.00 0.00 0.00 53 1013.7
20260904190503 99 252 0.0 1.0 0.00 0.00 0.00 52 1013.7
20260904190003 99 276 0.0 1.0 0.00 0.00 0.00 53 1013.7
20260904185503 99 0 0.0 0.0 0.00 0.00 0.00 54 1013.8
20260904185003 99 337 0.0 1.0 0.00 0.00 0.00 53 1013.8
20260904184504 98 337 0.0 1.0 0.00 0.00 0.00 54 1013.9
20260904184003 98 0 0.0 0.0 0.00 0.00 0.00 54 1014.0
20260904183504 98 0 0.0 0.0 0.00 0.00 0.00 55 1013.9
20260904183003 98 0 0.0 0.0 0.00 0.00 0.00 55 1014.1
20260904182503 97 250 0.0 1.0 0.00 0.00 0.00 56 1014.3
20260904182003 97 232 1.0 4.0 0.00 0.00 0.00 56 1014.2
20260904181718 97 231 1.0 4.0 0.00 0.00 0.00 55 1014.2
20260904181217 98 267 0.0 3.0 0.00 0.00 0.00 56 1014.4
20260904180504 97 262 0.0 2.0 0.00 0.00 0.00 57 1014.5
20260904180217 97 309 0.0 2.0 0.00 0.00 0.00 57 1014.5
20260904175504 96 316 0.0 2.0 0.00 0.00 0.00 56 1014.6
20260904175217 97 263 0.0 2.0 0.00 0.00 0.00 56 1014.6
20260904174504 97 229 0.0 2.0 0.00 0.00 0.00 57 1014.6
20260904174217 97 221 0.0 2.0 0.00 0.00 0.00 58 1014.6
20260904173504 96 303 0.0 1.0 0.00 0.00 0.00 58 1014.7
20260904173003 96 214 0.0 1.0 0.00 0.00 0.00 59 1014.7
20260904172503 96 287 0.0 1.0 0.00 0.00 0.00 58 1014.8
20260904172004 95 304 0.0 1.0 0.00 0.00 0.00 58 1014.8
20260904171717 95 314 0.0 1.0 0.00 0.00 0.00 58 1014.8
20260904171003 95 305 0.0 1.0 0.00 0.00 0.00 60 1014.9
20260904170718 95 314 0.0 2.0 0.00 0.00 0.00 59 1014.9
20260904170219 95 293 0.0 3.0 0.00 0.00 0.00 59 1015.0
20260904165504 95 267 0.0 2.0 0.00 0.00 0.00 60 1014.9
20260904165218 95 268 0.0 2.0 0.00 0.00 0.00 59 1015.0
20260904164503 94 272 0.0 1.0 0.00 0.00 0.00 61 1015.1
20260904164003 94 242 0.0 3.0 0.00 0.00 0.00 62 1015.0
20260904163503 94 236 1.0 4.0 0.00 0.00 0.00 61 1014.8
20260904163003 94 237 0.0 4.0 0.00 0.00 0.00 62 1014.8
20260904162503 94 195 0.0 1.0 0.00 0.00 0.00 61 1014.9
20260904162003 94 261 0.0 1.0 0.00 0.00 0.00 61 1014.9
20260904161504 93 275 0.0 1.0 0.00 0.00 0.00 62 1014.9
20260904161003 93 299 0.0 2.0 0.00 0.00 0.00 62 1014.9
20260904160717 92 305 0.0 2.0 0.00 0.00 0.00 62 1014.9
20260904160004 92 299 1.0 2.0 0.00 0.00 0.00 63 1014.9
20260904155503 92 290 0.0 2.0 0.00 0.00 0.00 63 1014.8
20260904155218 92 284 0.0 2.0 0.00 0.00 0.00 64 1014.8
20260904154717 92 0 0.0 0.0 0.00 0.00 0.00 64 1014.8
20260904154003 91 241 0.0 4.0 0.00 0.00 0.00 65 1014.9
20260904153503 91 237 0.0 4.0 0.00 0.00 0.00 67 1014.9
20260904153218 91 237 0.0 3.0 0.00 0.00 0.00 67 1014.8
20260904152504 90 241 0.0 1.0 0.00 0.00 0.00 68 1014.7
20260904152003 90 207 0.0 2.0 0.00 0.00 0.00 68 1014.9
20260904151504 90 215 0.0 2.0 0.00 0.00 0.00 67 1014.8
20260904151003 90 209 0.0 3.0 0.00 0.00 0.00 68 1014.7
20260904150504 89 209 0.0 4.0 0.00 0.00 0.00 68 1014.7
20260904150004 89 213 0.0 4.0 0.00 0.00 0.00 69 1014.7
20260904145717 89 159 0.0 2.0 0.00 0.00 0.00 69 1014.7
20260904145218 89 234 0.0 1.0 0.00 0.00 0.00 70 1014.7
20260904144503 88 216 0.0 3.0 0.00 0.00 0.00 71 1014.7
20260904144003 88 208 0.0 2.0 0.00 0.00 0.00 72 1014.6
20260904143719 88 217 0.0 2.0 0.00 0.00 0.00 72 1014.6
20260904143004 87 234 0.0 2.0 0.00 0.00 0.00 74 1014.7
20260904142503 86 233 0.0 2.0 0.00 0.00 0.00 74 1014.6
20260904142004 86 232 0.0 2.0 0.00 0.00 0.00 75 1014.7
20260904141503 86 230 0.0 1.0 0.00 0.00 0.00 75 1014.7
20260904141217 86 239 0.0 1.0 0.00 0.00 0.00 76 1014.7
20260904140503 85 230 0.0 3.0 0.00 0.00 0.00 76 1014.7
20260904140004 84 226 0.0 3.0 0.00 0.00 0.00 77 1014.7
20260904135504 84 222 0.0 1.0 0.00 0.00 0.00 78 1014.7
20260904135003 84 233 0.0 1.0 0.00 0.00 0.00 78 1014.7
20260904134718 84 233 0.0 1.0 0.00 0.00 0.00 78 1014.7
20260904134217 83 240 0.0 1.0 0.00 0.00 0.00 79 1014.8